Weather History for New Philadelphia, OH

Change the Weather History Date:

Friday, November 28, 2014

  Actual Average Record
Temperature  
Mean Temperature 26 °F 38 °F  
Max Temperature 30 °F 47 °F 74 °F (1990)
Min Temperature 22 °F 30 °F 10 °F (2013)
Degree Days  
Heating Degree Days 39 26  
Month to date heating degree days 758 605  
Since 1 July heating degree days 1205 1104  
Cooling Degree Days 0 0  
Month to date cooling degree days 0 0  
Year to date cooling degree days 630 697  
Moisture  
Dew Point 18 °F    
Average Humidity 64    
Maximum Humidity 75    
Minimum Humidity 53    
Precipitation  
Precipitation T in 0.12 in 1.04 in (1983)
Month to date precipitation 1.77 3.03  
Year to date precipitation 37.09 35.99  
Sea Level Pressure  
Sea Level Pressure 30.31 in    
Wind  
Wind Speed 6 mph (WSW)    
Max Wind Speed 17 mph    
Max Gust Speed 23 mph    
Visibility 10 miles    
Events      
T = Trace of Precipitation, MM = Missing Value Source: NWS Daily Summary

Daily Weather History Graph

Daily Weather History Graph

Search for Another Location

Airport:

Trip Planner

Search our weather history database for the weather conditions in past years. The results will help you decide how hot, cold, wet, or windy it might be!

Date:

Astronomy

Nov. 28, 2014 Rise Set
Actual Time 7:26 AM EST 5:00 PM EST
Civil Twilight 6:56 AM EST 5:30 PM EST
Nautical Twilight 6:22 AM EST 6:04 PM EST
Astronomical Twilight 5:49 AM EST 6:37 PM EST
Moon 12:18 PM EST (11/28) 11:48 PM EST (11/28)
Length of Visible Light 10h 34m
Length of Day
9h 34m
Waxing Crescent, 42% of the Moon is Illuminated
Nov 28
Waxing Crescent
Nov 29
First Quarter
Dec 6
Full
Dec 14
Last Quarter
Dec 21
New

Hourly Weather History & Observations

Time (EST) Temp. Windchill Dew Point Humidity Pressure Visibility Wind Dir Wind Speed Gust Speed Precip Events Conditions
12:10 AM 30.0 °F 22.4 °F 21.9 °F 72% 30.27 in 10.0 mi WNW 8.1 mph - N/A   Overcast
12:53 AM 30.0 °F 23.2 °F 23.0 °F 75% 30.30 in 10.0 mi West 6.9 mph - N/A   Overcast
1:14 AM 28.9 °F 21.1 °F 23.0 °F 78% 30.27 in 10.0 mi West 8.1 mph - N/A   Mostly Cloudy
1:53 AM 30.0 °F 24.1 °F 23.0 °F 75% 30.31 in 10.0 mi WNW 5.8 mph - N/A   Overcast
2:02 AM 30.0 °F 23.2 °F 23.0 °F 75% 30.28 in 10.0 mi WNW 6.9 mph - N/A   Overcast
2:38 AM 28.9 °F 19.8 °F 21.9 °F 75% 30.29 in 10.0 mi WNW 10.4 mph - 0.00 in   Overcast
2:53 AM 28.9 °F 21.9 °F 21.0 °F 72% 30.33 in 10.0 mi WNW 6.9 mph - 0.00 in   Overcast
3:53 AM 28.0 °F 20.8 °F 19.9 °F 72% 30.34 in 10.0 mi WNW 6.9 mph - 0.00 in   Overcast
4:53 AM 28.0 °F 20.0 °F 21.0 °F 75% 30.35 in 10.0 mi WNW 8.1 mph - N/A   Overcast
5:00 AM 28.0 °F 18.1 °F 21.0 °F 75% 30.32 in 10.0 mi NW 11.5 mph - N/A   Overcast
5:18 AM 27.0 °F 17.3 °F 16.0 °F 63% 30.33 in 10.0 mi NW 10.4 mph 19.6 mph N/A   Overcast
5:53 AM 25.0 °F 12.2 °F 12.0 °F 58% 30.38 in 10.0 mi NW 16.1 mph - N/A   Overcast
6:53 AM 21.9 °F 17.2 °F 10.0 °F 60% 30.39 in 10.0 mi WNW 3.5 mph - N/A   Clear
7:53 AM 24.1 °F 18.2 °F 12.9 °F 62% 30.40 in 10.0 mi NW 4.6 mph - N/A   Overcast
8:53 AM 24.1 °F 16.0 °F 12.9 °F 62% 30.41 in 10.0 mi NW 6.9 mph - N/A   Overcast
9:53 AM 24.1 °F 18.2 °F 12.9 °F 62% 30.41 in 10.0 mi Variable 4.6 mph - N/A   Overcast
10:33 AM 25.0 °F 20.7 °F 15.1 °F 66% 30.38 in 10.0 mi Variable 3.5 mph - N/A   Overcast
10:48 AM 24.8 °F 20.5 °F 15.8 °F 69% 30.37 in 10.0 mi SW 3.5 mph - N/A   Mostly Cloudy
10:53 AM 25.0 °F 19.3 °F 15.1 °F 66% 30.40 in 10.0 mi WNW 4.6 mph - N/A   Mostly Cloudy
11:53 AM 26.1 °F - 16.0 °F 66% 30.38 in 10.0 mi Calm Calm - N/A   Overcast
12:50 PM 28.4 °F 20.4 °F 17.6 °F 64% 30.31 in 10.0 mi SW 8.1 mph - N/A   Overcast
12:53 PM 28.0 °F 21.7 °F 17.1 °F 63% 30.34 in 10.0 mi WSW 5.8 mph - N/A   Overcast
1:53 PM 28.0 °F 20.0 °F 18.0 °F 66% 30.32 in 10.0 mi SW 8.1 mph - N/A   Mostly Cloudy
2:07 PM 28.0 °F 21.7 °F 18.0 °F 66% 30.28 in 10.0 mi WSW 5.8 mph - N/A   Mostly Cloudy
2:53 PM 28.9 °F 21.1 °F 18.0 °F 64% 30.30 in 10.0 mi SSW 8.1 mph - N/A   Mostly Cloudy
3:03 PM 28.9 °F 22.8 °F 18.0 °F 64% 30.26 in 10.0 mi SSW 5.8 mph - N/A   Mostly Cloudy
3:53 PM 30.0 °F 25.2 °F 19.9 °F 66% 30.29 in 10.0 mi SE 4.6 mph - N/A   Overcast
4:53 PM 30.0 °F 26.5 °F 16.0 °F 56% 30.29 in 10.0 mi SW 3.5 mph - N/A   Overcast
5:53 PM 30.0 °F 24.1 °F 17.1 °F 59% 30.27 in 9.0 mi SW 5.8 mph - N/A   Overcast
6:53 PM 28.9 °F 21.9 °F 18.0 °F 64% 30.27 in 10.0 mi SSW 6.9 mph - 0.00 in   Partly Cloudy
7:53 PM 28.0 °F 24.2 °F 19.0 °F 69% 30.25 in 10.0 mi SSE 3.5 mph - N/A   Partly Cloudy
8:53 PM 28.9 °F 25.2 °F 19.0 °F 67% 30.24 in 10.0 mi SSE 3.5 mph - N/A   Mostly Cloudy
9:53 PM 28.9 °F 21.9 °F 19.0 °F 67% 30.22 in 10.0 mi SE 6.9 mph - N/A   Mostly Cloudy
10:53 PM 30.0 °F 24.1 °F 19.0 °F 64% 30.19 in 10.0 mi SE 5.8 mph - N/A   Mostly Cloudy
11:53 PM 30.0 °F 25.2 °F 19.9 °F 66% 30.20 in 10.0 mi SSE 4.6 mph - N/A   Overcast